[[{"header":{"parameterUnit":"m.s-1","parameterCategory":1,"la1":30.2991,"la2":30.254,"lo1":-89.0895,"lo2":-89.0444,"dy":0.0017,"dx":0.0017,"nx":28,"ny":28,"refTime":"2023-11-09T03:00:00:Z","depth":0,"parameterNumber":2,"parameterNumberName":"U-component_of_WINDS"},"data":[0,0,0,0,0,0,0,0,0,0,0,0,0,0,0,0,0,0,0,0,0,0,0,0,0,0,0,0,0,0,0,0,0,0,0,0,0,0,0,0,0,0,0,0,0,0,0,0,0,0,0,0,0,0,0,0,0,0,-2.3433,-2.3433,0,-2.3488,-2.3489,-2.3489,-2.3502,-2.3502,-2.3502,-2.3501,-2.3557,-2.3559,-2.3561,0,0,0,0,0,0,0,0,0,0,0,0,0,-2.3338,-2.3339,-2.3433,-2.3433,-2.3434,-2.3488,-2.3489,-2.3489,-2.3502,-2.3502,-2.3501,-2.3501,-2.3557,-2.3559,-2.3561,0,0,0,0,0,0,0,0,0,0,0,0,0,-2.3384,-2.334,-2.3432,-2.3447,-2.3449,-2.3488,-2.3489,-2.349,-2.3502,-2.3502,-2.3501,-2.3501,-2.3556,-2.3559,-2.3561,-2.359,0,0,-2.357,-2.3571,0,0,0,0,0,0,0,0,-2.3382,-2.3388,-2.3444,-2.3446,-2.3448,-2.3488,-2.3476,-2.3523,-2.3503,-2.3482,-2.3501,-2.3501,-2.3534,-2.3539,-2.3551,-2.3592,-2.3595,-2.357,-2.3572,-2.3573,-2.3574,0,0,0,0,0,0,0,-2.3378,-2.3386,-2.3454,-2.3445,-2.3447,-2.345,-2.3457,-2.3485,-2.3511,-2.3484,-2.3485,-2.3491,-2.3535,-2.3548,-2.3552,-2.3595,-2.357,-2.3572,-2.3574,-2.3575,-2.3662,-2.3663,0,0,0,0,0,0,-2.3373,-2.3383,-2.3453,-2.3456,-2.3413,-2.3453,-2.3459,-2.3476,-2.351,-2.3515,-2.3492,-2.3492,-2.3543,-2.3549,-2.3554,-2.3589,-2.3573,-2.3575,-2.3577,-2.3661,-2.3662,-2.3663,0,0,0,0,0,0,-2.3371,-2.3379,-2.345,-2.342,-2.3429,-2.3455,-2.3473,-2.3477,-2.3489,-2.3516,-2.3521,-2.35,-2.3543,-2.355,-2.358,-2.3591,-2.3577,-2.3579,-2.3661,-2.3662,-2.3663,-2.3658,0,0,0,0,0,0,-2.3368,-2.3378,-2.3389,-2.342,-2.3431,-2.3476,-2.3474,-2.3478,-2.3494,-2.3495,-2.3525,-2.353,-2.3543,-2.3576,-2.3583,-2.3594,-2.3581,-2.366,-2.3661,-2.3662,-2.3658,-2.3659,-2.366,0,0,0,0,0,-2.3364,-2.3386,-2.339,-2.3398,-2.3445,-2.3477,-2.3483,-2.3498,-2.3495,-2.3506,-2.3523,-2.3529,-2.3589,-2.3579,-2.3587,-2.3599,-2.3659,-2.3661,-2.3662,-2.3657,-2.3659,-2.366,0,0,0,0,0,0,-2.3355,-2.339,-2.3395,-2.3427,-2.3449,-2.3479,-2.3493,-2.35,-2.3523,-2.3523,-2.3541,-2.3548,-2.3576,-2.3591,-2.358,-2.3628,-2.3624,-2.3627,-2.3617,-2.3619,-2.362,-2.3616,-2.3584,0,0,0,0,0,-2.3357,-2.338,-2.3409,-2.3435,-2.3445,-2.3468,-2.3482,-2.3492,-2.3515,-2.3525,-2.3544,-2.3567,-2.359,-2.3606,-2.3629,-2.366,-2.3667,-2.3672,-2.3674,-2.3675,-2.3677,-2.3693,-2.3696,-2.3668,-2.3668,-2.3668,0,0,-2.3361,-2.3383,-2.3396,-2.3433,-2.3451,-2.3474,-2.3475,-2.35,-2.3517,-2.3528,-2.3558,-2.3573,-2.3599,-2.363,-2.3644,-2.3643,-2.3686,-2.3676,-2.3677,-2.3679,-2.3695,-2.3698,-2.37,-2.3669,-2.3669,-2.3668,0,0,-2.3379,-2.3398,-2.3421,-2.344,-2.3467,-2.3482,-2.3487,-2.3517,-2.3527,-2.3557,-2.3566,-2.3587,-2.3628,-2.3646,-2.366,-2.3686,-2.3691,-2.3693,-2.3699,-2.3715,-2.3717,-2.3719,-2.3727,-2.373,-2.3695,-2.3695,-2.3695,0,-2.338,-2.3415,-2.3432,-2.3456,-2.3472,-2.3484,-2.3507,-2.3524,-2.3557,-2.3568,-2.3566,-2.3617,-2.3636,-2.367,-2.3676,-2.3688,-2.3694,-2.3689,-2.3716,-2.3718,-2.372,-2.3728,-2.3731,-2.3695,-2.3695,-2.3695,-2.3695,0,-2.3415,-2.3439,-2.3454,-2.3486,-2.3504,-2.3527,-2.3547,-2.3563,-2.3572,-2.3587,-2.3617,-2.364,-2.3668,-2.3677,-2.3686,-2.3712,-2.3711,-2.3712,-2.3708,-2.3722,-2.373,-2.3733,-2.3695,-2.3695,-2.3695,-2.3695,0,0,-2.3428,-2.347,-2.3475,-2.3489,-2.3521,-2.3539,-2.3563,-2.3591,-2.3604,-2.3627,-2.3647,-2.3681,-2.3682,-2.3699,-2.371,-2.3724,-2.3742,-2.3724,-2.3725,-2.3725,-2.3772,-2.377,-2.3773,-2.3746,-2.3746,-2.3747,-2.3769,0,-2.3449,-2.3492,-2.3508,-2.3543,-2.3565,-2.3577,-2.3597,-2.3619,-2.3633,-2.3654,-2.367,-2.3694,-2.3694,-2.3704,-2.3719,-2.3736,-2.3751,-2.3735,-2.3764,-2.3764,-2.3756,-2.3777,-2.3775,-2.3795,-2.3772,-2.3773,-2.3773,0,-2.348,-2.3503,-2.354,-2.3568,-2.3578,-2.3596,-2.3623,-2.3643,-2.3667,-2.3677,-2.3695,-2.3705,-2.373,-2.3725,-2.376,-2.3748,-2.3761,-2.3771,-2.3773,-2.3775,-2.3769,-2.3779,-2.3802,-2.3804,-2.3778,-2.3778,-2.3778,0,-2.3484,-2.3525,-2.3552,-2.3565,-2.3599,-2.3611,-2.3626,-2.365,-2.3665,-2.3688,-2.3698,-2.3724,-2.3738,-2.3757,-2.3774,-2.3769,-2.3806,-2.3803,-2.3814,-2.3814,-2.3821,-2.382,-2.3845,-2.3831,-2.3831,-2.3831,-2.3831,0,-2.3506,-2.3528,-2.3555,-2.3571,-2.3596,-2.3614,-2.3638,-2.3654,-2.3675,-2.3695,-2.3707,-2.3725,-2.3746,-2.3767,-2.378,-2.3806,-2.3813,-2.3821,-2.3824,-2.3819,-2.3818,-2.3827,-2.3826,-2.3831,-2.3831,-2.3831,-2.3831,0,-2.3515,-2.3534,-2.3564,-2.3594,-2.3602,-2.3619,-2.3644,-2.3661,-2.3676,-2.3701,-2.3707,-2.3731,-2.3756,-2.3775,-2.3808,-2.3817,-2.3844,-2.3848,-2.3836,-2.3837,-2.3847,-2.3845,-2.3877,-2.3882,-2.3866,-2.3866,-2.3866,0,-2.3527,-2.3544,-2.3575,-2.3589,-2.3604,-2.3627,-2.3642,-2.3661,-2.3677,-2.3706,-2.3719,-2.3745,-2.3766,-2.3806,-2.3826,-2.3851,-2.3855,-2.3864,-2.3858,-2.3853,-2.3854,-2.3852,-2.3854,-2.3865,-2.3865,-2.3865,-2.3865,0,-2.3545,-2.3554,-2.3576,-2.3602,-2.362,-2.3641,-2.3663,-2.3674,-2.3696,-2.3713,-2.3739,-2.3756,-2.3789,-2.3815,-2.3842,-2.3857,-2.3864,-2.3867,-2.3871,-2.3865,-2.3857,-2.3861,-2.3837,-2.3866,-2.3866,-2.3866,-2.3866,-2.3866,-2.3555,-2.3571,-2.3595,-2.362,-2.3638,-2.3657,-2.3674,-2.3692,-2.3713,-2.3742,-2.3752,-2.3778,-2.3802,-2.3839,-2.3854,-2.3875,-2.3875,-2.3881,-2.3882,-2.3883,-2.3882,-2.3855,-2.388,-2.388,-2.388,-2.388,-2.388,0,-2.3574,-2.359,-2.3613,-2.3642,-2.3661,-2.3667,-2.3691,-2.3706,-2.373,-2.3751,-2.3772,-2.3802,-2.3827,-2.3849,-2.3875,-2.3887,-2.3891,-2.3893,-2.3892,-2.3895,-2.3881,-2.3875,-2.3889,-2.3889,-2.3889,-2.3889,-2.3889,-2.3889,-2.3586,-2.3612,-2.3623,-2.3659,-2.3675,-2.3701,-2.3714,-2.3732,-2.3749,-2.3782,-2.3803,-2.3817,-2.3839,-2.3866,-2.3889,-2.3895,-2.3904,-2.3904,-2.3911,-2.3897,-2.3896,-2.3895,-2.3889,-2.3906,-2.3906,-2.3923,-2.3923,-2.3923]},{"header":{"parameterUnit":"m.s-1","parameterCategory":1,"la1":30.2991,"la2":30.254,"lo1":-89.0895,"lo2":-89.0444,"dy":0.0017,"dx":0.0017,"nx":28,"ny":28,"refTime":"2023-11-09T03:00:00:Z","depth":0,"parameterNumber":3,"parameterNumberName":"V-component_of_WINDS"},"data":[0,0,0,0,0,0,0,0,0,0,0,0,0,0,0,0,0,0,0,0,0,0,0,0,0,0,0,0,0,0,0,0,0,0,0,0,0,0,0,0,0,0,0,0,0,0,0,0,0,0,0,0,0,0,0,0,0,0,2.7473,2.7473,0,2.7489,2.7489,2.749,2.7482,2.7482,2.7481,2.7481,2.7496,2.7497,2.7498,0,0,0,0,0,0,0,0,0,0,0,0,0,2.7436,2.7437,2.7473,2.7473,2.7473,2.7489,2.7489,2.749,2.7482,2.7482,2.7481,2.7481,2.7496,2.7497,2.7498,0,0,0,0,0,0,0,0,0,0,0,0,0,2.7452,2.7437,2.7473,2.7471,2.7471,2.7489,2.749,2.749,2.7482,2.7482,2.7481,2.748,2.7496,2.7497,2.7498,2.7518,0,0,2.7502,2.7502,0,0,0,0,0,0,0,0,2.7451,2.7454,2.7471,2.7472,2.7472,2.7483,2.7482,2.7499,2.7482,2.7478,2.7481,2.748,2.7492,2.7494,2.7498,2.7519,2.7519,2.7502,2.7503,2.7503,2.7503,0,0,0,0,0,0,0,2.745,2.7453,2.7479,2.7472,2.7472,2.747,2.7472,2.7485,2.7488,2.7478,2.7478,2.748,2.7492,2.7497,2.7498,2.7519,2.7502,2.7503,2.7504,2.7504,2.7561,2.7561,0,0,0,0,0,0,2.7449,2.7452,2.7479,2.748,2.746,2.7472,2.7473,2.748,2.7488,2.7489,2.7481,2.748,2.7495,2.7497,2.7499,2.7525,2.7503,2.7504,2.7505,2.756,2.7561,2.7562,0,0,0,0,0,0,2.7449,2.7452,2.7478,2.7466,2.7469,2.7473,2.748,2.7481,2.7485,2.749,2.749,2.7485,2.7495,2.7497,2.7514,2.7525,2.7505,2.7506,2.7559,2.756,2.7561,2.7576,0,0,0,0,0,0,2.7447,2.7451,2.7458,2.7466,2.747,2.7493,2.7481,2.7481,2.7488,2.7487,2.7494,2.7495,2.7495,2.7512,2.7515,2.7527,2.7507,2.7558,2.7559,2.7561,2.7574,2.7577,2.758,0,0,0,0,0,2.7446,2.7461,2.7459,2.7462,2.7479,2.7493,2.7495,2.7495,2.7488,2.7496,2.75,2.7494,2.7524,2.7514,2.7517,2.7529,2.7557,2.7559,2.7561,2.7573,2.7577,2.758,0,0,0,0,0,0,2.7453,2.7462,2.7459,2.7477,2.7485,2.7492,2.7501,2.7499,2.7508,2.7507,2.7506,2.7508,2.7526,2.7529,2.7518,2.7551,2.7539,2.7542,2.7548,2.7551,2.7554,2.7553,2.7508,0,0,0,0,0,2.7457,2.7468,2.7475,2.749,2.7494,2.7497,2.7503,2.7503,2.7511,2.7514,2.7518,2.7526,2.7537,2.7544,2.7554,2.7575,2.7578,2.7585,2.7588,2.759,2.7592,2.7606,2.761,2.7567,2.7567,2.7567,0,0,2.7464,2.7471,2.7477,2.7491,2.7497,2.751,2.75,2.7512,2.7522,2.7515,2.7532,2.7536,2.7545,2.7564,2.7573,2.7568,2.7605,2.7592,2.7594,2.7595,2.7608,2.7613,2.7616,2.7568,2.7568,2.7568,0,0,2.7485,2.749,2.7504,2.7511,2.752,2.7523,2.7527,2.7535,2.7538,2.7555,2.7552,2.7563,2.7581,2.7589,2.7595,2.7622,2.7618,2.7625,2.764,2.7653,2.7657,2.766,2.7672,2.7675,2.7627,2.7627,2.7627,0,2.7493,2.7511,2.7511,2.7526,2.7533,2.7529,2.7545,2.7551,2.7563,2.7569,2.7563,2.7589,2.7594,2.7616,2.7623,2.7628,2.7633,2.7624,2.7656,2.7659,2.7662,2.7673,2.7678,2.7628,2.7628,2.7628,2.7628,0,2.7522,2.7535,2.7545,2.7559,2.7567,2.7582,2.7586,2.7594,2.7594,2.7598,2.7617,2.7624,2.7637,2.7642,2.7641,2.7665,2.7662,2.7656,2.7645,2.7667,2.7678,2.7682,2.7629,2.7629,2.7629,2.7629,0,0,2.7545,2.7561,2.7565,2.7573,2.7585,2.7595,2.7611,2.7624,2.7633,2.7642,2.7656,2.7674,2.767,2.7677,2.7677,2.7688,2.7713,2.7681,2.7682,2.7689,2.7743,2.7749,2.7754,2.771,2.7711,2.7712,2.7743,0,2.7567,2.7595,2.7598,2.7623,2.7636,2.7634,2.7648,2.7658,2.7662,2.7675,2.768,2.7693,2.7685,2.769,2.7702,2.7707,2.7724,2.7705,2.7725,2.7725,2.7724,2.7759,2.7764,2.7793,2.7747,2.7748,2.7748,0,2.7596,2.7609,2.7636,2.7649,2.7655,2.7667,2.7682,2.7694,2.7705,2.7708,2.7718,2.7717,2.7735,2.7723,2.7748,2.7735,2.7744,2.7748,2.7749,2.7752,2.7739,2.7764,2.7802,2.7807,2.7754,2.7754,2.7753,0,2.7613,2.7636,2.7656,2.7663,2.7678,2.7687,2.7694,2.7705,2.7715,2.7728,2.7734,2.7748,2.7757,2.7768,2.7772,2.7763,2.7798,2.7786,2.7802,2.7802,2.781,2.7809,2.7852,2.7813,2.7813,2.7813,2.7813,0,2.7639,2.7656,2.7665,2.7677,2.7697,2.7701,2.772,2.7727,2.7737,2.7752,2.7751,2.7764,2.7768,2.7783,2.7786,2.7808,2.7811,2.7815,2.7816,2.7816,2.7816,2.7822,2.782,2.7814,2.7814,2.7814,2.7813,0,2.766,2.7667,2.7689,2.7703,2.7707,2.7721,2.7734,2.7746,2.7752,2.777,2.7775,2.7784,2.7801,2.7807,2.7827,2.783,2.7856,2.7854,2.7852,2.7853,2.7869,2.7869,2.7918,2.7926,2.7881,2.7881,2.7881,0,2.7676,2.769,2.7706,2.7717,2.7724,2.774,2.7751,2.7756,2.7767,2.7783,2.7794,2.7812,2.7827,2.7856,2.7864,2.7881,2.788,2.7896,2.7882,2.7883,2.7883,2.7883,2.7885,2.7899,2.79,2.79,2.79,0,2.7705,2.7709,2.7724,2.7741,2.7754,2.7768,2.7781,2.7789,2.7797,2.7809,2.7828,2.784,2.7863,2.7881,2.7899,2.7907,2.7906,2.7905,2.791,2.791,2.791,2.7913,2.7861,2.7904,2.7903,2.7903,2.7903,2.7903,2.7725,2.7739,2.7753,2.7771,2.7782,2.7796,2.7809,2.7818,2.7834,2.7854,2.7856,2.7877,2.7892,2.7916,2.7925,2.7942,2.7937,2.7944,2.7945,2.7947,2.795,2.7907,2.7945,2.7945,2.7944,2.7944,2.7944,0,2.7756,2.7766,2.7782,2.7802,2.7817,2.7816,2.7832,2.7844,2.7863,2.7877,2.7893,2.7916,2.7935,2.7946,2.7965,2.7977,2.7978,2.7982,2.7982,2.7984,2.7952,2.7947,2.7982,2.7982,2.7982,2.7982,2.7982,2.7982,2.7773,2.7796,2.7802,2.7832,2.7842,2.7864,2.7873,2.7887,2.7898,2.7925,2.7941,2.7949,2.7962,2.7983,2.8001,2.8004,2.8012,2.8018,2.8021,2.799,2.7986,2.7983,2.7978,2.8019,2.8019,2.8052,2.8052,2.8053]}]]